Location: Risskov
(56.1972°N, 10.2480°E)
Time: 00:29:51
(UTC+00:00)

Cosmos 2154 Rocket - Pass Details

Date: 05 July 2020
Orbit: 967 x 996 km, 82.9° (Epoch: 03 August)

Event Time Altitude Azimuth Distance (km) Brightness Sun altitude
Exits shadow 21:23:05 - 162° (SSE) 2,874 5.8 -7.1°
Reaches altitude 10° 21:23:33 10° 160° (SSE) 2,705 5.7 -7.1°
Maximum altitude 21:29:24 46° 90° (E) 1,289 4.5 -7.5°
Drops below altitude 10° 21:35:17 10° 20° (NNE) 2,730 7.1 -7.9°
Sets 21:37:53 0° 14° (NNE) 3,685 7.9 -8.0°
